Location: Saint-Usage
(47.1052°N, 5.2587°E)
Time: 12:31:30
(UTC+01:00)

NOAA 19 - Pass Details

Date: 30 November 2021
Orbit: 841 x 860 km, 99.2° (Epoch: 24 January)

Event Time Altitude Azimuth Distance (km) Brightness Sun altitude
Rises 07:10:40 0° 27° (NNE) 3,426 8.4 -8.8°
Reaches altitude 10° 07:13:38 10° 43° (NE) 2,489 7.9 -8.3°
Maximum altitude 07:17:47 21° 92° (E) 1,811 8.0 -7.7°
Drops below altitude 10° 07:21:55 10° 141° (SE) 2,484 8.8 -7.0°
Sets 07:24:52 0° 156° (SSE) 3,418 9.2 -6.6°
